Zurück zum Katalog

FENGYUN 1C DEB

AktivSSO
NORAD 30388·DEBRIS·🇨🇳 China

Gestartet May 10, 1999 von Taiyuan Satellite Launch Center

Loading…

Nächste Überflüge (nächste 24 Stunden)

TLE

AktuellSource: Space-Track

Epoche: Sep 14, 2026, 12:18 UTC

1 30388U 99025ADB 26257.51272571  .00000767  00000-0  29854-3 0  9990
2 30388  98.5832 275.4514 0219249 344.7893 169.6650 14.20392171 13425

Verfolge FENGYUN 1C DEB in Echtzeit mit AllMySat

Download on the App Store